Hourly Weather Suhotinovka

Today, 25 January, Monday

Time Temperature Precipitation Wind Pressure Humidity
00:00 -2°C° 0 mm 6 mps 739 mmHg 85%
01:00 -3°C° 0 mm 6 mps 739 mmHg 85%
02:00 -3°C° 0 mm 7 mps 738 mmHg 86%
03:00 -3°C° 0 mm 7 mps 738 mmHg 87%
04:00 -4°C° 0 mm 7 mps 738 mmHg 89%
05:00 -4°C° 0 mm 7 mps 738 mmHg 91%
06:00 -4°C° 0 mm 7 mps 738 mmHg 91%
07:00 -4°C° 0 mm 7 mps 738 mmHg 92%
08:00 -4°C° 0 mm 7 mps 738 mmHg 93%
09:00 -2°C° 0.1 mm 5 mps 737 mmHg 97%
10:00 -2°C° 0.1 mm 5 mps 737 mmHg 97%
11:00 -1°C° 0.1 mm 5 mps 737 mmHg 98%
12:00 -1°C° 0 mm 5 mps 737 mmHg 99%
13:00 -1°C° 0 mm 5 mps 737 mmHg 99%
14:00 -1°C° 0 mm 5 mps 737 mmHg 99%
15:00 -1°C° 0 mm 5 mps 737 mmHg 99%
16:00 -1°C° 0 mm 5 mps 737 mmHg 98%
17:00 -1°C° 0 mm 5 mps 738 mmHg 98%
18:00 -1°C° 0.1 mm 5 mps 738 mmHg 98%
19:00 -1°C° 0.1 mm 5 mps 738 mmHg 98%
20:00 -1°C° 0.1 mm 5 mps 738 mmHg 98%
21:00 -2°C° 0.1 mm 6 mps 737 mmHg 97%
22:00 -2°C° 0.1 mm 6 mps 737 mmHg 97%
23:00 -2°C° 0.1 mm 6 mps 737 mmHg 97%

Tomorrow, 26 January, Tuesday

Time Temperature Precipitation Wind Pressure Humidity
00:00 -3°C° 0 mm 6 mps 736 mmHg 95%
01:00 -3°C° 0 mm 7 mps 736 mmHg 93%
02:00 -3°C° 0 mm 7 mps 736 mmHg 91%
03:00 -3°C° 0 mm 7 mps 735 mmHg 91%
04:00 -4°C° 0 mm 8 mps 734 mmHg 92%
05:00 -4°C° 0 mm 8 mps 734 mmHg 92%
06:00 -4°C° 0.3 mm 8 mps 733 mmHg 94%
07:00 -4°C° 0.3 mm 9 mps 733 mmHg 95%
08:00 -4°C° 0.3 mm 10 mps 733 mmHg 96%
09:00 -4°C° 0.1 mm 9 mps 733 mmHg 96%
10:00 -4°C° 0.1 mm 8 mps 733 mmHg 96%
11:00 -2°C° 0.1 mm 8 mps 732 mmHg 96%
12:00 -2°C° 0 mm 8 mps 732 mmHg 97%
13:00 -2°C° 0 mm 8 mps 731 mmHg 97%
14:00 -2°C° 0 mm 8 mps 731 mmHg 97%
15:00 -2°C° 0.9 mm 8 mps 730 mmHg 97%
16:00 -2°C° 0.9 mm 8 mps 729 mmHg 98%
17:00 -2°C° 0.9 mm 8 mps 729 mmHg 98%
18:00 -2°C° 0.7 mm 8 mps 729 mmHg 94%
19:00 -2°C° 0.7 mm 7 mps 728 mmHg 90%
20:00 -2°C° 0.7 mm 7 mps 728 mmHg 87%
21:00 -4°C° 0 mm 8 mps 729 mmHg 87%
22:00 -4°C° 0 mm 8 mps 729 mmHg 87%
23:00 -5°C° 0 mm 9 mps 729 mmHg 87%

Day after tomorrow, 27 January, Wednesday

Time Temperature Precipitation Wind Pressure Humidity
00:00 -5°C° 0 mm 9 mps 729 mmHg 87%
01:00 -5°C° 0 mm 9 mps 730 mmHg 87%
02:00 -7°C° 0 mm 10 mps 730 mmHg 87%
03:00 -7°C° 0.1 mm 10 mps 730 mmHg 87%
04:00 -7°C° 0.1 mm 10 mps 730 mmHg 88%
05:00 -7°C° 0.1 mm 10 mps 730 mmHg 89%
06:00 -7°C° 0.1 mm 10 mps 731 mmHg 89%
07:00 -6°C° 0.1 mm 9 mps 731 mmHg 88%
08:00 -6°C° 0.1 mm 9 mps 731 mmHg 88%
09:00 -6°C° 0.1 mm 9 mps 732 mmHg 88%
10:00 -7°C° 0.1 mm 10 mps 732 mmHg 87%
11:00 -5°C° 0.1 mm 10 mps 732 mmHg 87%
12:00 -5°C° 0 mm 9 mps 733 mmHg 87%
13:00 -5°C° 0 mm 9 mps 733 mmHg 86%
14:00 -5°C° 0 mm 9 mps 733 mmHg 86%
15:00 -5°C° 0 mm 8 mps 733 mmHg 87%
16:00 -6°C° 0 mm 8 mps 734 mmHg 88%
17:00 -6°C° 0 mm 7 mps 734 mmHg 89%
18:00 -6°C° 0 mm 7 mps 734 mmHg 89%
19:00 -6°C° 0 mm 7 mps 735 mmHg 90%
20:00 -5°C° 0 mm 6 mps 735 mmHg 90%
21:00 -5°C° 0 mm 6 mps 735 mmHg 91%
22:00 -6°C° 0 mm 5 mps 735 mmHg 91%
23:00 -6°C° 0 mm 5 mps 735 mmHg 91%

28 January, Thursday

Time Temperature Precipitation Wind Pressure Humidity
00:00 -5°C° 0 mm 4 mps 735 mmHg 93%
01:00 -6°C° 0 mm 3 mps 735 mmHg 94%
02:00 -6°C° 0 mm 3 mps 735 mmHg 95%
03:00 -6°C° 0 mm 3 mps 735 mmHg 95%
04:00 -6°C° 0 mm 3 mps 735 mmHg 95%
05:00 -7°C° 0 mm 3 mps 735 mmHg 95%
06:00 -6°C° 0 mm 2 mps 735 mmHg 95%
07:00 -6°C° 0 mm 2 mps 735 mmHg 94%
08:00 -6°C° 0 mm 2 mps 735 mmHg 94%
09:00 -5°C° 0 mm 2 mps 735 mmHg 94%
10:00 -5°C° 0 mm 2 mps 735 mmHg 94%
11:00 -4°C° 0 mm 2 mps 735 mmHg 95%
12:00 -2°C° 0 mm 1 mps 735 mmHg 95%
13:00 -3°C° 0 mm 1 mps 735 mmHg 95%
14:00 -3°C° 0 mm 1 mps 734 mmHg 95%
15:00 -3°C° 0 mm 1 mps 734 mmHg 95%
16:00 -3°C° 0 mm 1 mps 734 mmHg 95%
17:00 -3°C° 0 mm 1 mps 735 mmHg 95%
18:00 -4°C° 0 mm 1 mps 734 mmHg 95%
19:00 -4°C° 0 mm 1 mps 734 mmHg 95%
20:00 -4°C° 0 mm 1 mps 734 mmHg 94%

29 January, Friday

Time Temperature Precipitation Wind Pressure Humidity

30 January, Saturday

Time Temperature Precipitation Wind Pressure Humidity
Show more